Weather History for Point Lay, AK

Change the Weather History Date:

Wednesday, February 22, 2012

  Actual Average Record
Temperature  
Mean Temperature -10 °F -  
Max Temperature -8 °F -9 °F 26 °F (2009)
Min Temperature -11 °F -19 °F -35 °F (2013)
Degree Days  
Heating Degree Days 74    
Moisture  
Dew Point -16 °F    
Average Humidity 75    
Maximum Humidity 79    
Minimum Humidity 71    
Precipitation  
Precipitation 0.00 in - - ()
Sea Level Pressure  
Sea Level Pressure 30.05 in    
Wind  
Wind Speed 15 mph (NE)    
Max Wind Speed 17 mph    
Max Gust Speed -    
Visibility 8 miles    
Events Snow    
Averages and records for this station are not official NWS values.
T = Trace of Precipitation, MM = Missing Value Source: NWS Daily Summary

Daily Weather History Graph

Daily Weather History Graph

Search for Another Location

Airport:

Trip Planner

Search our weather history database for the weather conditions in past years. The results will help you decide how hot, cold, wet, or windy it might be!

Date:

Astronomy

Feb. 22, 2012 Rise Set
Actual Time 9:51 AM AKST 6:21 PM AKST
Civil Twilight 8:47 AM AKST 7:25 PM AKST
Nautical Twilight 7:37 AM AKST 8:35 PM AKST
Astronomical Twilight 6:27 AM AKST 9:46 PM AKST
Moon 8:56 AM AKST (2/22) 8:56 PM AKST (2/22)
Length of Visible Light 10h 38m
Length of Day
8h 30m
New Moon, 1% of the Moon is Illuminated
Feb 22
New Moon
Feb 29
First Quarter
Mar 8
Full
Mar 14
Last Quarter
Mar 22
New

Hourly Weather History & Observations

Time (AKST) Temp. Windchill Dew Point Humidity Pressure Visibility Wind Dir Wind Speed Gust Speed Precip Events Conditions
12:56 AM -10.8 °F -34.0 °F -15.9 °F 78% 29.89 in 10.0 mi NE 16.1 mph - N/A   Overcast
1:56 AM -9.9 °F -32.8 °F -15.9 °F 75% 29.91 in 9.0 mi NE 16.1 mph - N/A   Overcast
2:56 AM -10.8 °F -34.0 °F -17.0 °F 74% 29.92 in 10.0 mi NNE 16.1 mph - N/A   Overcast
3:56 AM -11.9 °F -34.6 °F -17.9 °F 75% 29.93 in 10.0 mi NNE 15.0 mph - N/A   Overcast
4:56 AM -10.8 °F -34.7 °F -15.9 °F 78% 29.94 in 10.0 mi NE 17.3 mph - N/A   Overcast
5:56 AM -11.2 °F -34.4 °F -16.6 °F 77% 29.94 in 10.0 mi NNE 16.1 mph - N/A   Overcast
6:56 AM -11.9 °F -34.6 °F -17.0 °F 78% 29.96 in 10.0 mi NE 15.0 mph - N/A   Overcast
7:56 AM -10.8 °F -34.0 °F -17.0 °F 74% 29.98 in 10.0 mi NE 16.1 mph - 0.00 in   Overcast
8:56 AM -10.8 °F -34.7 °F -17.0 °F 74% 29.99 in 7.0 mi NE 17.3 mph - N/A   Overcast
9:56 AM -10.8 °F -34.0 °F -17.0 °F 74% 30.00 in 8.0 mi NNE 16.1 mph - 0.00 in Snow Light Snow
10:56 AM -10.8 °F -34.7 °F -17.0 °F 74% 30.02 in 6.0 mi NE 17.3 mph - 0.00 in Snow Light Snow
11:56 AM -10.8 °F -33.2 °F -17.0 °F 74% 30.04 in 5.0 mi NE 15.0 mph - 0.00 in   Haze
12:56 PM -10.8 °F -32.5 °F -17.0 °F 74% 30.06 in 5.0 mi NE 13.8 mph - 0.00 in   Haze
1:11 PM -11.2 °F -34.4 °F -16.6 °F 77% 30.04 in 2.0 mi NE 16.1 mph - 0.00 in Snow Light Snow
1:21 PM -9.4 °F -32.1 °F -16.6 °F 71% 30.05 in 4.0 mi NNE 16.1 mph - 0.00 in Snow Light Snow
1:56 PM -9.9 °F -33.5 °F -15.9 °F 75% 30.07 in 7.0 mi NNE 17.3 mph - 0.00 in   Overcast
2:56 PM -11.2 °F -32.9 °F -16.6 °F 77% 30.08 in 5.0 mi NNE 13.8 mph - N/A Snow Light Snow
3:56 PM -10.8 °F -29.7 °F -17.0 °F 74% 30.11 in 10.0 mi NNE 10.4 mph - 0.00 in   Overcast
4:56 PM -10.8 °F -29.7 °F -17.0 °F 74% 30.12 in 10.0 mi NNE 10.4 mph - N/A   Overcast
5:56 PM -9.4 °F -26.8 °F -16.6 °F 71% 30.11 in 8.0 mi NE 9.2 mph - N/A Snow Light Snow
6:56 PM -9.9 °F -27.5 °F -15.9 °F 75% 30.14 in 10.0 mi NNE 9.2 mph - 0.00 in   Overcast
7:56 PM -9.9 °F -24.9 °F -15.0 °F 78% 30.16 in 10.0 mi NNE 6.9 mph - 0.00 in Snow Light Snow
8:56 PM -9.4 °F -28.9 °F -14.8 °F 77% 30.16 in 10.0 mi NNE 11.5 mph - N/A Snow Light Snow
9:56 PM -8.9 °F -28.2 °F -13.9 °F 79% 30.19 in 9.0 mi NNE 11.5 mph - 0.00 in   Overcast
10:56 PM -9.9 °F -29.6 °F -15.0 °F 78% 30.21 in 7.0 mi NNE 11.5 mph - 0.00 in Snow Light Snow
11:56 PM -9.4 °F -27.9 °F -16.6 °F 71% 30.21 in 8.0 mi NE 10.4 mph - N/A Snow Light Snow